Regional Weather Roundup
Issued by NWS

Home | Current Version | Previous Version | Graphics & Text | Print | Product List | Glossary On
Versions: 1 2 3 4 5 6 7 8 9 10 11 12 13 14 15 16 17 18 19 20 21 22 23 24 25 26 27 28 29 30 31 32 33 34 35 36 37 38 39 40 41 42 43 44 45 46 47 48 49 50
000
ASUS43 KIND 161900
RWRIN

WEATHER ROUNDUP FOR INDIANA
NATIONAL WEATHER SERVICE INDIANAPOLIS IN
300 PM EDT MON OCT 16 2017

NOTE: "FAIR" INDICATES FEW OR NO CLOUDS BELOW 12,000 FEET WITH NO
SIGNIFICANT WEATHER AND/OR OBSTRUCTIONS TO VISIBILITY.

* - STATION DOES NOT REPORT WEATHER SUCH AS PRECIPITATION OR FOG.

+ - STATION NOT QUALITY CONTROLLED BY THE NATIONAL WEATHER SERVICE.
    USE DATA WITH CAUTION...ESPECIALLY DEWPOINT AND RELATIVE
    HUMIDITY OBSERVATIONS.

INZ001>003-010>013-019-020-162000-
NORTHWEST INDIANA

CITY           SKY/WX    TMP DP  RH WIND       PRES   REMARKS
GARY /AIRPORT/ MOSUNNY   63  36  36 W14       30.28F
KNOX *+        SUNNY     61  36  39 W8        30.29F
MONTICELLO +   MOSUNNY   63  35  34 W9G17     30.30F
RENSSELAER +   MOSUNNY   63  23  22 W6G17     30.30F

$$

LMZ046-743>745-162000-
SOUTHERN LAKE MICHIGAN

STATION/POSITION TIME  TEMP    WIND        PRES    WAVE
                       AIR SEA DIR/SP/G            HT
                 (UTC) (F)     (DEG/KT/KT) (MB)    (FT)
BURNS HARBOR     1840   58     270/  7/ 11 1025.7F
MICHIGAN CITY    1830   55     250/  7/  9   N/A
5NW MICH CITY    1840   55 58  260/  6/ 10   N/A     3

$$

INZ004-005-014>016-021>024-162000-
NORTH CENTRAL INDIANA

CITY           SKY/WX    TMP DP  RH WIND       PRES   REMARKS
ELKHART        MOSUNNY   55  37  50 W7        30.28F
GOSHEN         MOSUNNY   58  39  49 NW10      30.28F
PERU/GRISSOM   MOSUNNY   60  37  42 W9        30.29F
SOUTH BEND     SUNNY     58  36  43 W10       30.29F
WARSAW +       PTSUNNY   55  37  50 NW8       30.29F

$$

INZ006>009-017-018-025>027-162000-
NORTHEAST INDIANA

CITY           SKY/WX    TMP DP  RH WIND       PRES   REMARKS
AUBURN +       CLOUDY    55  39  54 W7        30.29S
FORT WAYNE     MOSUNNY   60  37  42 W13G18    30.29F
KENDALLVILLE + MOSUNNY   55  42  61 CALM      30.28F

$$

INZ028-029-035-036-043>045-051>053-162000-
WEST CENTRAL INDIANA

CITY           SKY/WX    TMP DP  RH WIND       PRES   REMARKS
GREENCASTLE +  SUNNY     61  34  36 NW5       30.32F
LAFAYETTE      MOSUNNY   61  37  41 W10       30.30F
TERRE HAUTE    SUNNY     62  35  36 VRB3      30.33F

$$

INZ030>032-037>040-046>048-054>057-064-065-162000-
CENTRAL INDIANA

CITY           SKY/WX    TMP DP  RH WIND       PRES   REMARKS
ANDERSON       MOSUNNY   57  37  47 NW12      30.31
GREENWOOD *+   SUNNY     63  38  39 NE3       30.32F
INDIANAPOLIS   MOSUNNY   60  35  39 CALM      30.32F
-EAGLE CREEK   SUNNY     61  35  37 MISG      30.30F
KOKOMO +       SUNNY     60  37  42 NW9       30.31F
MT COMFORT *+  SUNNY     59  43  55 NW8       30.31F
SHELBYVILLE    SUNNY     62  34  35 VRB7      30.30F

$$

INZ033-034-041-042-049-050-058-059-162000-
EAST CENTRAL INDIANA

CITY           SKY/WX    TMP DP  RH WIND       PRES   REMARKS
MUNCIE         MOSUNNY   62  36  37 W9        30.30F
RICHMOND +     MOSUNNY   57  36  44 NW8       30.30F

$$

INZ060-061-067>069-081>083-085>088-162000-
SOUTHWEST INDIANA

CITY           SKY/WX    TMP DP  RH WIND       PRES   REMARKS
EVANSVILLE     SUNNY     63  38  39 VRB6      30.34F
HUNTINGBURG +  SUNNY     60  40  47 N6        30.33F

$$

INZ062-063-066-070>080-084-089>092-162000-
SOUTH CENTRAL AND SOUTHEAST INDIANA

CITY           SKY/WX    TMP DP  RH WIND       PRES   REMARKS
BLOOMINGTON    SUNNY     61  33  35 VRB5      30.32F
MADISON *+     MOSUNNY   63  32  31 N7        30.32F
SEYMOUR +      MOSUNNY   63  37  39 NW6       30.31F

$$





USA.gov is the U.S. government's official web portal to all federal, state and local government web resources and services.